User: anonymous   Login
Location: Toronto
(43.6672°N, 79.4170°W)
Time: 17:58:47
(UTC-04:00)
Language:

ISS - Orbit

View from above orbital plane
View from above orbital plane
View from above satellite
View from above satellite

Ground track
Ground track

The orbit data is extracted from the following two-line orbital elements,

1 25544U 98067A   16238.69952381  .00005903  00000-0  95675-4 0  9996
2 25544  51.6449  71.1614 0002994 237.7501 212.2775 15.54323851 15807
Epoch (UTC): 25 August 2016 16:47:18
Eccentricity: 0.0002994
inclination: 51.6449°
perigee height: 402 km
apogee height: 406 km
right ascension of ascending node: 71.1614°
argument of perigee: 237.7501°
revolutions per day: 15.54323851
mean anomaly at epoch: 212.2775°
orbit number at epoch: 1580

The dashed part of the orbit path shows where the satellite is in the earth's shadow,  

DLR